Cannon Air Force Base Clovis US
ICAO: KCVS
IATA: CVS
Category: Large
Scheduled Services: No

Elevation: 4295 ft
TransAlt. 18000 ft.

Airport Communications:
APP:125.5
ATIS:119.1
CLNC DEL:120.2
DEP:125.5
GND:121.9
PMSV METRO:34.46
COMD POST:38.13
PTD:139.6
TWR:120.4

KCVS Zoom In..

If you have problems with the map follow the link
https://www.worldairports.se/pages/airport.php?
ICAO=KCVS

Runways:

(A) RW 04 length 10003 ft width 150 ft
ILS 108.50 / hdg 35

(B) RW 13 length 8196 ft width 150 ft
ILS 110.35 / hdg 125

(C) RW 22 length 10003 ft width 150 ft
ILS 109.70 / hdg 215

(D) RW 31 length 8196 ft width 150 ft
ILS 108.30 / hdg 305

Location; KCVS
Day. 19 / Time. 01.58 Zulu
* Altimeter: 30.37
* Temperature: 01° c. 33.8°f.
* Wind from: 100° Speed 08 kn.
Dewpoint: -06° c.
Visibility: 10 Statute Miles.
Clouds: Clear (automated report).

KCVS 190158Z AUTO 10008KT 10SM CLR 01/M06 A3037 RMK AO2 SLP300 T00121059 $


Wind From 100°
Speed 08 kn.

 
 
jpsmedia worldairports.se 2020   terms of use